METAR Formatted Surface Weather Observation
Issued by NWS

Home | Current Version | Previous Version | Text Only | Print | Product List | Glossary On
Versions: 1 2 3 4 5 6 7 8 9 10 11 12 13 14 15 16 17 18 19 20 21 22 23 24 25 26 27 28 29 30 31 32 33 34 35 36 37 38 39 40 41 42 43 44 45 46 47 48 49 50
901
SAUS45 KTWC 250052
MTRSAD
METAR KSAD 250051Z AUTO 02007KT 10SM VCTS FEW090 SCT110 28/11 A2999
RMK AO2 PK WND 01038/0021 LTG DSNT SW-NW SLP108 T02830106



USA.gov is the U.S. government's official web portal to all federal, state and local government web resources and services.